Location: La Tine
(46.4708°N, 7.0525°E)
Time: 00:04:01
(UTC+00:00)

Cosmos 1833 Rocket - Pass Details

Date: 22 January 2021
Orbit: 833 x 839 km, 71.0° (Epoch: 03 March)

Event Time Altitude Azimuth Distance (km) Brightness Sun altitude
Rises 17:14:23 0° 340° (NNW) 3,391 5.9 -9.2°
Reaches altitude 10° 17:17:45 10° 1° (N) 2,454 4.9 -9.7°
Maximum altitude 17:21:22 17° 41° (NE) 1,995 4.2 -10.3°
Enters shadow 17:23:39 14° 69° (ENE) 2,188 4.2 -10.7°
